Location: Newark
(34.6283°N, 36.0776°E)
Time: 06:43:19
(UTC+00:00)

Transit 2A - All Passes

Search period start: 15 September 2019 00:00
Search period end: 25 September 2019 00:00
Orbit: 598 x 961 km, 66.7° (Epoch: 13 September)

Date Brightness Start Highest point End Pass type
(mag) Time Alt. Az. Time Alt. Az. Time Alt. Az.
15 Sep - 01:21:10 10° SW 01:27:10 61° WNW 01:32:39 10° NNE visible
15 Sep - 10:12:21 10° NNW 10:16:40 45° ENE 10:20:49 10° SE daylight
15 Sep - 11:57:28 10° W 11:59:15 12° WSW 12:01:02 10° SW daylight
15 Sep - 23:09:03 10° ESE 23:10:25 11° ESE 23:11:46 10° E visible
16 Sep - 00:46:57 10° SSW 00:53:02 89° WNW 00:58:37 10° NNE visible
16 Sep - 02:34:08 10° WNW 02:36:49 13° NW 02:39:24 10° NNW visible
16 Sep - 09:38:33 10° N 09:42:27 29° NE 09:46:13 10° ESE daylight
16 Sep - 11:22:05 10° WNW 11:25:21 21° WSW 11:28:33 10° SSW daylight
17 Sep - 00:12:58 10° SSW 00:18:57 62° ESE 00:24:27 10° NE visible
17 Sep - 01:58:23 10° W 02:02:27 19° NW 02:06:17 10° N visible
17 Sep - 09:04:58 10° N 09:08:11 19° NE 09:11:17 10° E daylight
17 Sep - 10:47:25 10° NW 10:51:24 34° WSW 10:55:16 10° S daylight
17 Sep - 23:39:14 10° S 23:44:54 42° ESE 23:50:08 10° NE visible
18 Sep - 01:23:14 10° WSW 01:28:09 27° NW 01:32:46 10° N visible
18 Sep - 08:31:53 10° NNE 08:33:49 13° NE 08:35:44 10° ENE daylight
18 Sep - 10:13:03 10° NW 10:17:23 57° WSW 10:21:36 10° SSE daylight
18 Sep - 23:05:51 10° SSE 23:10:53 28° ESE 23:15:36 10° NE visible
19 Sep - 00:48:25 10° SW 00:53:56 38° WNW 00:59:01 10° N visible
19 Sep - 09:38:52 10° NNW 09:43:19 85° ENE 09:47:37 10° SSE daylight
19 Sep - 22:32:52 10° SSE 22:36:54 19° ESE 22:40:44 10° ENE visible
20 Sep - 00:13:53 10° SW 00:19:46 56° WNW 00:25:09 10° NNE visible
20 Sep - 09:04:52 10° NNW 09:09:12 50° ENE 09:13:23 10° SE daylight
20 Sep - 10:50:36 10° W 10:51:44 11° WSW 10:52:52 10° WSW daylight
20 Sep - 22:00:53 10° SE 22:02:58 12° ESE 22:04:59 10° E night (unlit)
20 Sep - 23:39:36 10° SSW 23:45:37 83° WNW 23:51:09 10° NNE visible
21 Sep - 01:27:20 10° WNW 01:29:27 12° NW 01:31:30 10° NNW visible
21 Sep - 08:31:02 10° N 08:35:01 31° ENE 08:38:52 10° ESE daylight
21 Sep - 10:14:49 10° WNW 10:17:50 18° WSW 10:20:49 10° SSW daylight
21 Sep - 23:05:34 10° SSW 23:11:32 68° ESE 23:17:00 10° NNE visible
22 Sep - 00:51:21 10° W 00:55:04 17° NW 00:58:37 10° N visible
22 Sep - 07:57:24 10° N 08:00:45 20° NE 08:04:00 10° ESE daylight
22 Sep - 09:40:02 10° NW 09:43:53 30° WSW 09:47:40 10° S daylight
22 Sep - 22:31:47 10° S 22:37:29 45° ESE 22:42:43 10° NE visible
23 Sep - 00:16:04 10° WSW 00:20:47 25° NW 00:25:10 10° N visible
23 Sep - 07:24:10 10° NNE 07:26:25 14° NE 07:28:37 10° E daylight
23 Sep - 09:05:38 10° NW 09:09:53 51° WSW 09:14:03 10° S daylight
23 Sep - 21:58:18 10° SSE 22:03:27 30° ESE 22:08:14 10° NE night (unlit)
23 Sep - 23:41:11 10° WSW 23:46:32 35° WNW 23:51:28 10° N visible
24 Sep - 08:31:25 10° NNW 08:35:50 87° WSW 08:40:08 10° SSE daylight
24 Sep - 21:25:14 10° SSE 21:29:27 20° ESE 21:33:28 10° ENE night (unlit)
24 Sep - 23:06:36 10° SW 23:12:21 51° WNW 23:17:37 10° NNE visible
